Simultaneous Nadir Overpasses (SNOs) Predictions

Prediction of SNOs between LANDSAT-8 and NOAA-19 Satellite Orbit:

Table of predicted SNOs for the next 14.0 days since TLE Epoch: 8/24/2019
Index Date (LANDSAT-8) Time (LANDSAT-8) Lat,Lon (LANDSAT-8) SZA (LANDSAT-8 ) Date (NOAA-19) Time (NOAA-19) Lat,Lon (NOAA-19) SZA (NOAA-19 ) Distance(km) Time Diff (sec)
1 08/25/2019 02:42:12 -79.03, -19.59 111.20 08/25/2019 02:41:16 -79.05, -19.71 111.21 3.29 56
2 08/25/2019 03:31:39 78.98, 147.79 68.75 08/25/2019 03:32:21 79.01, 147.79 68.80 3.22 42
3 08/27/2019 08:15:55 79.02, 76.96 69.58 08/27/2019 08:14:44 79.04, 77.01 69.58 2.69 71
4 08/27/2019 09:05:23 -78.99,-115.59 110.45 08/27/2019 09:05:38 -79.02,-115.55 110.42 3.71 15
5 08/29/2019 14:39:06 79.02, -18.82 70.39 08/29/2019 14:39:07 79.02, -18.82 70.39 0.21 1
6 08/31/2019 20:12:51 -79.04, 77.81 108.79 08/31/2019 20:12:25 -79.04, 77.80 108.79 0.61 26
7 08/31/2019 21:02:17 79.03,-114.61 71.22 08/31/2019 21:03:30 79.00,-114.69 71.21 2.81 73
8 09/03/2019 01:46:34 79.06, 174.53 72.07 09/03/2019 01:45:54 79.05, 174.47 72.04 2.13 40
9 09/03/2019 02:36:02 -79.04, -17.98 107.95 09/03/2019 02:36:48 -79.02, -18.06 107.96 2.41 46
10 09/05/2019 07:20:19 -79.07, -88.83 107.08 09/05/2019 07:19:12 -79.06, -88.89 107.12 1.73 67




NCC Satellite Simultaneous Nadir Overpasses (SNOs) Prediction Service
